Probability
0 0 0 0 0 0 0 0 0 0 0 0 0 0 0 0 0 0 0 0 0 0 0 0 0 0 0 0 0 0 0 0 0 0 0 0 0 0 0 0 0 0 0 0
0 0 0 0 0 0 0 0 0 0 0 0 0 0 0 0 0 0 0 0 0 0 0 0 0 0 0 0 0 0 0 0 0 0 0 0 0 0 0 0 0 0 0 0
0 0 0 0 0 0 0 0 0 0 0 0 0 0 0 0 0 0 0 0 0 0 0 0 0 0 0 0 0 0 0 0 0 0 0 0 0 0 0 0 0 0 0 0
0 0 0 0 0 0 0 0 0 0 0 0 0 0 0 0 0 0 0 0 0 0 0 0 0 0 0 0 0 0 0 0 0 0 0 0 0 0 0 0 0 0 0 0
0 0 0 0 0 0 0 0 0 0 0 0 0 0 0 0 0 0 0 0 0 0 0 0 0 0 0 0 0 0 0 0 0 0 0 0 0 0 0 0 0 0 0 0
0 0 0 0 0 0 0 0 0 0 0 0 0 0 0 0 0 0 0 0 0 0 0 0 0 0 0 0 0 0 0 0 0 0 0 0 0 0 0 0 0 0 0 0
0 0 0 0 0 0 0 0 0 0 0 0 0 0 0 0 0 0 0 0 0 0 0 0 0 0 0 0 0 0 0 0 0 0 0 0 0 0 0 0 0 0 0 0
0 0 0 0 0 0 0 0 0 0 0 0 0 0 0 0 0 0 0 0 0 0 0 0 0 0 0 0 0 0 0 0 0 0 0 0 0 0 0 0 0 0 0 0
0 0 0 0 0 0 0 0 0 0 0 0 0 0 0 0 0 0 0 0 0 0 0 0 0 0 0 0 0 0 0 0 0 0 0 0 0 0 0 0 0 0 0 0
0 0 0 0 0 0 0 0 0 0 0 0 0 0 0 0 0 0 0 0 0 0 0 0 0 0 0 0 0 0 0 0 0 0 0 0 0 0 0 0 0 0 0 0
0 0 0 0 0 0 0 0 0 0 0 0 0 0 0 0 0 0 0 0 0 0 0 0 0 0 0 0 0 0 0 0 0 0 0 0 0 0 0 0 0 0 0 0
0 0 0 0 0 0 0 0 0 0 0 0 0 0 0 0 0 0 0 0 0 0 0 0 0 0 0 0 0 0 0 0 0 0 0 0 0 0 0 0 0 0 0 0
0 0 0 0 0 0 0 0 0 0 0 0 0 0 0 0 0 0 0 0 0 0 0 0 0 0 0 0 0 0 0 0 0 0 0 0 0 0 0 0 0 0 0 0
0 0 0 0 0 0 0 0 0 0 0 0 0 0 0 0 0 0 0 0 0 0 0 0 0 0 0 0 0 0 0 0 0 0 0 0 0 0 0 0 0 0 0 0
0 0 0 0 0 0 0 0 0 0 0 0 0 0 0 0 0 0 0 0 0 0 0 0 0 0 0 0 0 0 0 0 0 0 0 0 0 0 0 0 0 0 0 0
0 0 0 0 0 0 0 0 0 0 0 0 0 0 0 0 0 0 0 0 0 0 0 0 0 0 0 0 0 0 0 0 0 0 0 0 0 0 0 0 0 0 0 0
0 0 0 0 0 0 0 0 0 0 0 0 0 0 0 0 0 0 0 0 0 0 0 0 0 0 0 0 0 0 0 0 0 0 0 0 0 0 0 0 0 0 0 0
0 0 0 0 0 0 0 0 0 0 0 0 0 0 0 0 0 0 0 0 0 0 0 0 0 0 0 0 0 0 0 0 0 0 0 0 0 0 0 0 0 0 0 0
0 0 0 0 0 0 0 0 0 0 0 0 0 0 0 0 0 0 0 0 0 0 0 0 0 0 0 0 0 0 0 0 0 0 0 0 0 0 0 0 0 0 0 0
0 0 0 0 0 0 0 0 0 0 0 0 0 0 0 0 0 0 0 0 0 0 0 0 0 0 0 0 0 0 0 0 0 0 0 0 0 0 0 0 0 0 0 0
0 0 0 0 0 0 0 0 0 0 0 0 0 0 0 0 0 0 0 0 0 0 0 0 0 0 0 0 0 0 0 0 0 0 0 0 0 0 0 0 0 0 0 0
0 0 0 0 0 0 0 0 0 0 0 0 0 0 0 0 0 0 0 0 0 0 0 0 0 0 0 0 0 0 0 0 0 0 0 0 0 0 0 0 0 0 0 0
0 0 0 0 0 0 0 0 0 0 0 0 0 0 0 0 0 0 0 0 0 0 0 0 0 0 0 0 0 0 0 0 0 0 0 0 0 0 0 0 0 0 0 0
0 0 0 0 0 0 0 0 0 0 0 0 0 0 0 0 0 0 0 0 0 0 0 0 0 0 0 0 0 0 0 0 0 0 0 0 0 0 0 0 0 0 0 0
0 0 0 0 0 0 0 0 0 0 0 0 0 0 0 0 0 0 0 0 0 0 0 0 0 0 0 0 0 0 0 0 0 0 0 0 0 0 0 0 0 0 0 0
0 0 0 0 0 0 0 0 0 0 0 0 0 0 0 0 0 0 0 0 0 0 0 0 0 0 0 0 0 0 0 0 0 0 0 0 0 0 0 0 0 0 0 0
Wind_Speed
4 5 2 2 3 2 2 4 7 8 5 4 8 13 19 20 11 10 9 7 8 10 7 5 6 5 4 4 5 4 4 3 3 3 2 2 2 2 2 3 4 4 4 3
6 3 3 2 1 2 2 4 6 7 4 4 8 11 14 11 8 6 6 8 9 8 5 7 7 6 5 4 5 5 5 4 3 2 2 1 0 1 1 2 3 5 5 4
0 3 3 1 2 3 3 4 5 7 8 6 6 8 8 6 6 6 5 5 7 8 9 8 8 7 5 5 6 6 5 5 3 3 2 2 2 2 2 3 2 3 3 3
2 4 3 2 2 1 5 3 5 6 5 6 4 7 7 7 11 8 10 11 11 11 8 6 6 7 7 7 6 7 6 5 4 3 3 3 2 1 2 1 2 2 2 2
3 4 4 2 2 2 5 5 4 3 2 4 2 3 10 6 5 7 10 13 13 11 7 6 7 7 7 7 6 6 6 5 4 3 3 3 2 2 1 1 2 2 1 1
4 3 1 2 2 1 4 5 3 4 3 3 3 4 8 4 3 6 8 12 14 13 7 5 6 6 6 6 5 5 5 4 4 3 3 3 3 2 2 2 2 2 2 2
9 7 4 3 4 6 8 6 7 8 5 6 3 3 10 6 3 3 7 12 15 14 9 6 7 8 7 7 7 5 5 5 3 3 2 2 2 2 2 2 1 1 1 2
6 8 5 4 2 4 3 2 2 4 6 7 5 7 8 4 4 5 7 9 12 14 12 10 9 7 7 8 8 7 7 6 4 3 2 2 2 1 1 1 1 2 1 1
3 8 6 3 2 1 1 0 1 1 5 6 8 8 11 5 12 15 18 20 21 20 18 14 10 8 8 8 8 8 8 6 5 5 6 6 5 4 4 4 3 3 2 3
1 7 7 8 4 2 2 3 4 1 4 7 10 7 5 8 11 16 19 18 17 17 17 15 11 9 9 8 7 7 8 7 7 8 8 7 6 4 3 3 3 3 3 3
5 4 8 7 3 2 3 1 1 1 2 3 9 10 1 5 7 9 9 10 12 16 17 16 14 12 12 10 9 7 6 6 7 8 9 8 5 3 3 3 3 3 3 3
4 1 5 8 5 2 1 1 3 1 6 4 7 14 3 3 5 7 11 14 14 15 17 18 18 17 15 13 10 6 5 6 7 7 9 8 4 3 3 3 2 2 3 3
5 3 7 8 4 6 6 4 3 3 5 8 12 15 8 17 19 12 11 14 13 14 16 18 20 20 17 13 3 5 6 7 7 7 10 7 3 2 2 2 2 2 3 3
1 3 6 8 5 3 4 7 9 8 7 10 11 18 19 15 16 14 15 15 12 12 13 15 17 16 14 11 7 7 6 5 7 9 7 4 2 1 2 2 2 3 3 3
4 3 4 7 9 7 7 13 12 10 10 10 12 17 17 12 10 10 11 14 15 12 11 10 11 11 11 10 9 7 6 5 6 6 4 3 2 1 2 2 2 3 4 4
5 4 4 5 5 5 8 13 10 8 7 11 15 16 11 10 8 9 11 14 17 14 10 7 6 6 7 8 7 7 6 5 3 2 2 1 1 2 2 2 3 4 4 4
3 3 5 6 7 6 7 5 3 7 10 9 11 14 15 12 10 11 12 16 19 16 11 8 7 5 4 1 2 3 4 4 3 3 4 4 4 4 4 4 5 5 4 4
3 2 2 6 8 5 9 5 4 8 12 10 14 14 10 9 12 15 13 16 18 15 13 11 9 8 5 3 2 1 2 3 4 5 6 5 5 5 5 4 5 4 3 4
5 4 2 2 4 10 11 7 1 7 19 13 12 12 10 12 17 20 11 11 13 15 14 11 7 5 3 1 2 3 4 5 6 6 6 6 5 5 4 3 4 4 4 4
2 3 2 2 2 8 12 8 4 6 14 7 6 13 21 24 23 22 15 14 16 15 12 7 4 6 5 3 4 5 5 5 5 6 6 6 5 4 4 4 3 4 4 4
3 2 3 5 6 12 11 6 7 6 11 11 17 24 27 27 23 24 24 22 18 16 8 3 7 6 5 4 5 6 5 4 5 6 5 6 6 4 4 3 3 4 3 3
4 3 3 3 4 13 7 5 5 12 17 19 24 25 26 27 27 27 25 22 18 13 0 7 8 7 6 5 5 5 4 4 4 4 4 4 5 5 5 4 4 4 4 3
6 8 5 9 11 10 9 12 14 17 21 21 21 24 25 25 27 26 23 19 15 8 4 8 9 9 7 6 6 5 4 5 4 4 4 4 5 5 5 4 3 3 3 2
6 3 4 8 12 13 16 19 14 12 18 22 22 23 23 24 24 22 18 14 9 2 7 8 9 9 7 6 5 4 4 5 4 4 4 4 4 4 5 3 3 2 3 2
8 4 6 9 13 12 12 10 13 18 19 21 21 21 19 19 19 17 14 9 5 7 8 8 8 9 7 5 5 5 5 5 4 3 3 3 4 3 3 3 3 3 2 3
7 9 7 8 9 8 15 12 16 18 20 21 22 18 15 15 15 14 12 12 12 11 11 10 10 8 6 5 5 5 6 5 5 4 3 3 3 3 3 3 4 6 6 8
Wind_Direction
18 57 22 284 209 221 237 255 274 270 292 321 273 277 287 291 298 282 277 269 261 255 246 218 196 172 158 143 116 101 87 63 66 58 44 29 11 356 13 22 31 31 32 36
27 13 294 262 220 237 258 277 284 293 315 291 284 285 281 288 285 282 305 314 295 282 253 219 194 182 182 155 136 125 119 114 112 126 138 137 104 325 331 346 32 33 29 27
0 298 326 355 348 339 294 249 273 289 319 325 331 316 312 316 334 358 14 339 322 298 255 224 197 191 187 180 170 159 154 144 136 132 121 94 71 33 7 354 1 8 19 26
355 345 1 343 316 348 288 270 261 282 331 306 11 302 290 309 326 346 351 345 340 327 285 238 206 191 196 199 185 168 164 160 155 138 126 131 139 172 229 274 305 327 16 33
342 359 2 343 327 311 270 289 275 278 262 299 295 229 286 315 329 343 335 333 332 329 299 250 221 210 211 205 192 180 172 171 161 151 146 144 164 207 243 273 298 314 336 24
329 326 342 293 323 8 313 328 353 53 66 307 246 188 283 272 274 312 321 327 328 328 311 250 228 225 225 218 210 193 185 186 165 154 159 173 187 214 240 258 276 302 332 357
336 331 348 351 346 0 35 38 358 348 350 261 311 243 252 264 289 313 322 322 324 321 308 269 236 229 226 219 217 210 206 206 185 176 177 180 189 206 240 259 258 328 9 5
349 311 321 0 2 320 349 116 143 280 278 293 310 254 260 284 338 7 354 338 338 340 327 294 262 243 235 228 221 214 216 211 182 168 131 92 97 116 115 90 99 73 45 7
336 286 307 341 326 193 356 162 142 205 294 290 278 286 304 338 13 11 6 1 354 347 337 313 288 266 248 240 233 221 219 207 167 141 115 92 83 85 89 83 79 69 42 30
294 291 302 321 331 31 67 111 71 70 291 290 290 278 266 352 359 7 2 347 335 331 332 327 311 293 280 263 249 231 217 192 157 138 127 114 100 95 100 94 77 61 32 8
18 290 308 333 309 325 29 30 144 176 207 247 290 281 150 33 23 352 323 315 323 328 329 326 319 308 292 275 253 227 194 157 136 125 116 106 94 90 83 73 53 32 10 350
0 1 287 277 291 18 30 33 91 357 289 239 262 281 66 60 339 333 326 323 323 325 327 326 320 312 300 281 254 204 158 132 116 112 103 90 82 86 82 69 43 18 2 347
342 2 329 332 348 20 39 38 15 297 257 255 264 276 318 333 329 328 321 319 322 323 326 329 328 323 316 301 246 131 114 109 105 101 90 89 91 85 69 39 7 358 356 344
25 214 212 246 281 339 308 291 280 267 263 268 259 280 301 306 311 316 321 320 319 320 330 338 340 342 347 358 34 64 71 88 96 88 95 116 126 85 44 5 348 355 357 345
44 277 250 265 281 274 266 267 266 258 251 261 279 287 293 299 298 294 304 311 315 318 326 337 343 347 355 4 13 32 42 46 76 101 124 142 147 82 48 22 19 10 0 350
17 306 317 286 278 299 267 265 268 263 263 271 289 290 283 294 290 295 306 311 309 308 305 310 321 334 348 355 359 10 23 22 29 80 109 113 72 45 24 16 25 14 357 350
330 335 335 290 311 321 279 267 257 285 280 273 282 284 297 309 299 295 299 300 299 299 286 264 249 235 227 239 348 1 2 359 5 24 34 26 16 3 360 21 31 14 5 27
189 186 255 293 345 312 256 272 285 284 282 279 275 279 283 285 285 286 282 282 289 295 285 262 239 227 217 201 170 87 27 12 19 23 20 10 3 354 354 32 36 14 26 49
168 173 252 307 309 284 284 285 347 307 294 285 276 283 286 294 295 293 271 265 284 290 283 267 231 194 170 142 87 76 48 26 18 11 6 1 355 350 2 42 41 35 46 48
118 138 181 140 281 269 265 288 332 305 286 268 272 297 307 312 304 301 306 299 297 292 284 264 156 129 124 106 97 86 59 33 9 353 351 353 351 359 36 50 53 57 58 52
309 279 210 217 232 263 268 307 343 311 280 302 311 312 311 305 298 298 300 298 296 293 296 130 121 117 111 105 102 89 66 27 349 343 355 2 358 14 46 45 46 48 57 59
233 244 239 194 221 258 262 309 277 264 287 306 312 312 310 307 304 303 300 297 295 292 268 124 118 107 84 74 83 79 52 358 343 358 14 14 15 18 34 37 42 41 38 39
226 205 209 205 228 249 276 275 275 289 304 313 315 314 310 307 305 306 303 297 293 290 146 129 122 108 86 66 65 62 20 352 355 18 25 29 31 23 17 27 35 33 25 17
266 231 239 267 267 271 280 285 294 311 321 318 314 310 310 311 316 319 316 308 301 112 116 115 112 102 86 67 50 36 12 3 5 16 19 35 28 19 7 8 22 26 360 336
233 236 240 253 270 284 279 294 327 332 323 319 316 313 315 325 330 333 334 342 31 73 81 84 85 83 74 58 40 21 16 13 7 20 25 33 32 11 2 5 357 351 310 308
209 200 207 246 260 284 299 322 343 332 325 324 320 322 340 350 352 5 21 35 49 56 61 66 68 71 62 47 34 16 12 19 11 18 27 22 15 355 2 1 351 338 328 333